Location: Eschertshofen
(49.3064°N, 11.5756°E)
Time: 05:20:40
(UTC+00:00)

Cosmos 2285 Rocket - Pass Details

Date: 18 September 2020
Orbit: 970 x 1000 km, 74.0° (Epoch: 20 October)

Event Time Altitude Azimuth Distance (km) Brightness Sun altitude
Rises 19:32:43 0° 191° (S) 3,652 6.8 -21.5°
Reaches altitude 10° 19:35:14 10° 189° (S) 2,711 6.1 -21.9°
Maximum altitude 19:41:27 67° 108° (ESE) 1,057 3.9 -22.7°
Drops below altitude 10° 19:47:45 10° 28° (NNE) 2,746 6.4 -23.6°
Sets 19:50:19 0° 26° (NNE) 3,702 7.1 -23.9°
